Regional Weather Roundup
Issued by NWS Green Bay, WI

Home | Current Version | Previous Version | Graphics & Text | Print | Product List | Glossary Off
Versions: 1 2 3 4 5 6 7 8 9 10 11 12 13 14 15 16 17 18 19 20 21 22 23 24 25 26 27 28 29 30 31 32 33 34 35 36 37 38 39 40 41 42 43 44 45 46 47 48 49 50

000
ASUS43 KGRB 291410
RWRGRB

NORTH-CENTRAL AND NORTHEAST WISCONSIN REGIONAL WEATHER ROUNDUP
NATIONAL WEATHER SERVICE GREEN BAY WI
900 AM CDT TUE JUL 29 2014

WIZ005-009-010>012-018-019-291500-
NORTH CENTRAL WISCONSIN

CITY           SKY/WX    TMP DP  RH WIND       PRES   REMARKS
IRONWOOD       PTSUNNY   61  57  88 W7        30.04S
MANITOWISH WTR MOSUNNY   60  56  85 NW5       30.07F
ARBOR VITAE    MOSUNNY   62  58  87 N9        30.07R
EAGLE RIVER    MOSUNNY   62  55  77 NW10      30.06R
LAND O LAKES   PTSUNNY   62  55  78 NW7       30.06S
RHINELANDER    CLOUDY    59  55  87 VRB7      30.07S
PHILLIPS       MOSUNNY   59  56  87 NW5       30.08S
ANTIGO         CLOUDY    60  55  83 NW9       30.05F
TOMAHAWK       PTSUNNY   58  55  91 NW5       30.07S
MERRILL        CLOUDY    60  56  86 NW3       30.07S
$$

WIZ013-073-291500-
NORTHEAST WISCONSIN

CITY           SKY/WX    TMP DP  RH WIND       PRES   REMARKS
IRON MOUNTAIN  PTSUNNY   63  53  70 NW7       30.00S
MARINETTE      SUNNY     63  54  72 N6        29.99F
OCONTO         PTSUNNY   64  55  72 NW7       30.01S
$$

WIZ017-030-035>037-045-291500-
CENTRAL WISCONSIN

CITY           SKY/WX    TMP DP  RH WIND       PRES   REMARKS
MEDFORD        MOSUNNY   61  56  84 NW7       30.08S
WAUSAU         CLOUDY    60  54  80 NW8       30.05S
MOSINEE        NOT AVBL
MARSHFIELD     MOSUNNY   66  55  67 NW12      30.08R
WISC RAPIDS    MOSUNNY   64  56  75 NW6       30.09R
STEVENS POINT  CLOUDY    62  54  75 W3        30.07S
WAUPACA        CLOUDY    66  55  66 NW5       30.05S
SHAWANO        CLOUDY    65  55  70 NW5       30.03F
CLINTONVILLE   CLOUDY    63  52  67 NW5       30.04S
$$

WIZ038-039-048-051-291500-
FOX VALLEY

CITY           SKY/WX    TMP DP  RH WIND       PRES   REMARKS
NWS GREEN BAY  SUNNY     66  56  70 VRB6      30.03R
APPLETON       NOT AVBL
OSHKOSH        MOSUNNY   66  55  67 VRB7      30.04S
FOND DU LAC    MOSUNNY   66  55  67 N5        30.05S
$$

WIZ022-050-052-291500-
EAST CENTRAL WISCONSIN

CITY           SKY/WX    TMP DP  RH WIND       PRES   REMARKS
STURGEON BAY   PTSUNNY   63  54  72 NW7       30.02S
MANITOWOC      CLOUDY    64  56  75 NW5       30.02S
SHEBOYGAN      MOSUNNY   64  56  75 NW7       30.03R
$$

LMZ563-521-522-541>543-291500-
LAKESHORE

STATION/POSITION TIME  TEMP    WIND        PRES    VSBY  WAVE
                       AIR SEA DIR/SP/G                  HT/PER
                 (UTC) (F)     (DEG/KT/KT) (MB)    (MI)  (FT/S)
SHEBOYGAN LKSHOR 1400   65     320/  8/  9 1016.7S
KEWAUNEE LKSHORE 1400   64     300/  3/  8 1016.9R
NORTHPORT PIER   1400   60     310/ 11/ 13 1015.6R
N MID LAKE BUOY  1400   55 51  290/  6/  6 1014.7R         1
CHAMBERS ISLAND  1400   64     320/  6/  8 1015.9S
MENOMINEE LKSHOR 1400   62     290/  9/ 12 1016.4S
$$


USA.gov is the U.S. government's official web portal to all federal, state and local government web resources and services.